Location: Newark
(30.0333°N, 31.2167°E)
Time: 03:45:10
(UTC+00:00)

Tiros 1 despin weight - Pass Details

Date: 23 January 2020
Orbit: 594 x 642 km, 48.2° (Epoch: 18 February)

Event Time Altitude Azimuth Distance (km) Brightness Sun altitude
Rises 14:16:10 0° 324° (NW) 2,917 ? 12.3°
Reaches altitude 10° 14:19:53 10° 354° (N) 2,018 ? 11.6°
Maximum altitude 14:21:50 12° 19° (NNE) 1,867 ? 11.2°
Drops below altitude 10° 14:23:46 10° 44° (NE) 2,024 ? 10.8°
Sets 14:27:31 0° 74° (ENE) 2,936 ? 10.1°
